Regional Weather Roundup
Issued by NWS

Home | Current Version | Previous Version | Graphics & Text | Print | Product List | Glossary On
Versions: 1 2 3 4 5 6 7 8 9 10 11 12 13 14 15 16 17 18 19 20 21 22 23 24 25 26 27 28 29 30 31 32 33 34 35 36 37 38 39 40 41 42 43 44 45 46 47 48 49 50
000
ASUS43 KIND 270509
RWRIN

WEATHER ROUNDUP FOR INDIANA
NATIONAL WEATHER SERVICE INDIANAPOLIS IN
1200 AM EST FRI FEB 27 2015

NOTE: "FAIR" INDICATES FEW OR NO CLOUDS BELOW 12,000 FEET WITH NO
SIGNIFICANT WEATHER AND/OR OBSTRUCTIONS TO VISIBILITY.

* - STATION DOES NOT REPORT WEATHER SUCH AS PRECIPITATION OR FOG.

+ - STATION NOT QUALITY CONTROLLED BY THE NATIONAL WEATHER SERVICE.
    USE DATA WITH CAUTION...ESPECIALLY DEWPOINT AND RELATIVE
    HUMIDITY OBSERVATIONS.

INZ001>003-010>013-019-020-270600-
NORTHWEST INDIANA

CITY           SKY/WX    TMP DP  RH WIND       PRES   REMARKS
GARY /AIRPORT/ CLEAR      8  -7  52 W7        30.42S WCI  -4
KNOX *+          N/A     12   1  62 W3        30.39R
LA PORTE +     LGT SNOW  10   6  87 CALM      30.38S
MICHIGAN CITY+ LGT SNOW  12   5  73 CALM      30.40R
MONTICELLO +   LGT SNOW  10   7  90 CALM      30.40R
RENSSELAER +   CLEAR      1   0  92 NW5       30.41S WCI  -8
VALPARAISO     CLOUDY     9   2  73 W8        30.39R WCI  -3

$$

LMZ046-743>745-270600-
SOUTHERN LAKE MICHIGAN

STATION/POSITION TIME  TEMP WIND        PRES
                       AIR  DIR/SP/G
                 (UTC) (F)  (DEG/KT/KT) (MB)
MICHIGAN CITY    0500   13   40/ 12/ 14   N/A

$$

INZ004-005-014>016-021>024-270600-
NORTH CENTRAL INDIANA

CITY           SKY/WX    TMP DP  RH WIND       PRES   REMARKS
GOSHEN         CLEAR     -1  -8  72 CALM      30.35S
LOGANSPORT +   PTCLDY     5   1  85 W5        30.39S WCI  -4
PERU/GRISSOM   PTCLDY     8   0  70 W7        30.36S WCI  -3
ROCHESTER +    CLEAR      9   3  78 NW5       30.37S WCI   0
SOUTH BEND     PTCLDY     2  -4  76 W6        30.37S WCI  -9
WARSAW +       CLEAR      3  -4  72 CALM      30.36S

$$

INZ006>009-017-018-025>027-270600-
NORTHEAST INDIANA

CITY           SKY/WX    TMP DP  RH WIND       PRES   REMARKS
ANGOLA *+      CLEAR     -6 -13  71 CALM      30.32S
AUBURN +       CLEAR      5  -2  72 CALM      30.35S
FORT WAYNE     PTCLDY     7  -4  60 N6        30.35S WCI  -3
HUNTINGTON +   CLEAR      5  -8  54 W3        30.36R

$$

INZ028-029-035-036-043>045-051>053-270600-
WEST CENTRAL INDIANA

CITY           SKY/WX    TMP DP  RH WIND       PRES   REMARKS
CRAWFORDSVL +  LGT SNOW   5  -2  75 W5        30.39S WCI  -4
GREENCASTLE +  CLEAR      9   0  66 CALM      30.39S
LAFAYETTE      CLOUDY    11   6  81 NW10      30.41R WCI  -3
TERRE HAUTE    CLOUDY    11   6  81 NW3       30.43R

$$

INZ030>032-037>040-046>048-054>057-064-065-270600-
CENTRAL INDIANA

CITY           SKY/WX    TMP DP  RH WIND       PRES   REMARKS
CP ATTERBURY + CLOUDY    14   5  67 NW6       30.39R WCI   5
FRANKFORT +    PTCLDY     6   2  82 CALM      30.39S
GREENWOOD *+   CLEAR     10  -2  56 CALM      30.38
INDIANAPOLIS   CLEAR      7   0  73 NW8       30.37S WCI  -6
-EAGLE CREEK   CLEAR      7   0  73 NW7       30.38R WCI  -5
KOKOMO *+      CLEAR      7   0  72 NW7       30.37S WCI  -5
MARION +       CLEAR      2  -5  72 NW6       30.36S WCI  -9
MT COMFORT *+  CLEAR      9  -6  52 NW8       30.37R WCI  -4
SHELBYVILLE    CLEAR      9  -1  64 NW8       30.36S WCI  -3
ZIONSVILLE +   CLEAR      1  -5  73 NW3       30.38R

$$

INZ033-034-041-042-049-050-058-059-270600-
EAST CENTRAL INDIANA

CITY           SKY/WX    TMP DP  RH WIND       PRES   REMARKS
MUNCIE         CLEAR      6  -3  66 NW7       30.34R WCI  -6

$$

INZ060-061-067>069-081>083-085>088-270600-
SOUTHWEST INDIANA

CITY           SKY/WX    TMP DP  RH WIND       PRES   REMARKS
EVANSVILLE     CLEAR     19   8  62 N9        30.44R WCI   8
HUNTINGBURG *+ PTCLDY    18  10  73 NW6       30.41R WCI   9
WASHINGTON +   CLEAR      9   1  70 N8        30.43R WCI  -4

$$

INZ062-063-066-070>080-084-089>092-270600-
SOUTH CENTRAL AND SOUTHEAST INDIANA

CITY           SKY/WX    TMP DP  RH WIND       PRES   REMARKS
BLOOMINGTON    CLEAR     12   3  67 N3        30.38R
NORTH VERNON + FLURRIES   9   5  85 CALM      30.38R
SEYMOUR +      CLOUDY     9   3  78 NW5       30.39R WCI   0

$$



USA.gov is the U.S. government's official web portal to all federal, state and local government web resources and services.